CAPE
397 376 178 117 124 331 408 459 413 523 750 673 160 160 277 182 164 380 125 254 224 1334 1725 1630 1754 1701 1457 1297 1530 1823 1910 1869 1782 1845 1876 1600 1673 1800 1661 1371 1101 825 628
282 143 157 140 343 279 326 459 490 501 593 663 577 296 286 367 528 452 400 131 163 1248 1029 1832 1761 1695 1611 1800 1802 1767 1778 1555 1348 1526 1466 1714 1817 1660 1266 1050 867 697 491
238 221 211 242 319 100 313 461 397 513 606 603 493 376 330 411 590 675 540 258 212 832 1044 1442 1625 1757 2040 1938 1862 1736 1545 1528 1526 1441 1535 1449 1323 1119 823 559 349 224 189
107 142 168 243 159 79 377 412 389 287 445 448 382 315 268 248 391 648 643 451 344 507 852 1148 1441 1698 1853 1901 1701 1726 1692 1286 1165 1219 1240 1098 1002 716 536 418 198 27 5
22 43 37 70 20 173 387 199 186 635 413 297 249 118 130 10 81 187 552 757 449 574 791 955 1309 1088 1599 1817 1521 1522 1507 1351 1244 1110 927 723 526 405 208 63 2 0 0
30 15 0 21 99 215 345 70 183 567 504 124 74 17 45 14 0 83 340 617 579 801 676 549 1105 1277 1109 1401 1257 1208 1135 930 743 593 498 229 148 53 0 0 0 1 3
0 0 0 36 100 120 412 393 648 839 329 136 34 82 0 0 0 7 255 668 979 874 591 508 1027 1003 1565 1697 1349 1112 900 607 508 445 261 133 61 0 0 0 0 0 5
0 0 14 20 0 224 731 612 941 881 354 231 326 217 61 0 0 0 23 203 585 883 818 811 1097 660 985 970 1371 1167 1040 832 653 359 252 318 37 0 0 0 0 0 0
36 1 0 0 297 673 652 939 915 603 358 221 243 203 86 15 0 0 0 0 0 40 221 617 947 828 719 591 981 1332 980 755 796 671 676 265 0 0 0 0 0 0 0
58 5 0 63 747 762 591 552 1200 411 139 114 2 16 74 4 0 97 50 9 1 0 0 0 9 558 733 578 415 1016 982 565 929 674 395 77 0 0 0 0 0 0 0
244 50 183 9 854 1043 789 686 1049 410 449 191 0 0 0 0 0 155 120 68 6 0 0 0 0 0 371 861 560 602 511 488 575 543 270 0 0 0 0 0 0 0 0
408 354 495 525 1041 1055 844 757 878 1013 1254 710 252 0 22 149 282 209 188 132 93 75 5 4 1 0 7 502 742 539 247 226 212 244 3 0 0 0 0 0 0 0 0
651 573 638 879 970 1006 1072 895 928 907 944 1149 731 219 174 116 200 220 118 173 146 121 107 11 30 0 55 752 771 652 274 75 34 20 0 0 0 0 0 0 0 0 0
681 524 737 1011 1039 1034 1078 1255 1084 873 1013 1018 1066 1203 757 412 558 383 320 313 163 58 106 191 109 0 41 560 642 759 313 0 0 0 0 0 0 0 0 0 0 0 0
610 663 794 901 1053 1084 1158 1147 909 911 760 630 626 970 802 869 840 705 499 257 154 227 110 289 248 223 0 105 444 533 137 35 0 0 0 0 0 0 0 0 0 0 0
777 842 880 855 995 1068 1173 1133 849 1056 1017 750 872 938 894 1064 967 758 455 175 150 240 163 285 498 623 16 352 452 402 127 3 0 0 0 0 0 0 0 0 0 0 0
622 900 1103 991 1065 1161 1169 1163 823 848 874 795 705 698 764 567 495 457 544 393 405 353 290 81 330 550 375 377 588 409 125 35 0 0 0 0 0 0 0 0 0 0 0
493 679 804 1174 1081 1038 1140 1197 691 851 764 600 621 528 484 453 519 415 444 572 490 448 373 234 46 157 462 488 448 407 266 51 7 0 0 0 0 0 0 0 0 0 0
471 458 655 732 840 838 1058 1018 787 768 774 729 500 494 386 256 80 387 428 396 489 459 337 272 238 166 192 289 336 197 174 124 17 0 0 0 0 0 0 0 0 0 0
295 343 398 469 419 486 626 754 732 638 649 675 637 597 536 521 508 627 472 432 423 469 444 298 329 334 270 310 274 269 203 58 26 1 1 1 0 0 0 0 0 0 0
317 248 252 241 307 330 271 123 151 378 320 521 705 463 669 674 650 575 548 673 507 450 401 320 378 361 451 451 349 168 133 74 0 0 1 2 1 0 0 0 0 0 0
73 198 204 208 196 162 261 244 199 192 139 459 473 655 577 691 634 615 495 405 348 398 412 274 275 472 477 380 371 361 271 154 82 1 1 1 0 0 0 0 0 0 0
1 90 78 137 237 199 174 105 110 170 401 589 634 602 476 564 511 510 473 347 275 247 217 247 244 234 305 203 198 163 120 120 92 1 1 0 1 1 0 0 0 0 0
107 134 48 35 21 26 122 252 318 376 512 682 582 588 549 552 493 512 433 436 479 311 164 210 236 196 156 57 32 64 51 22 0 1 0 0 1 2 0 0 0 0 0
28 17 8 15 0 5 0 28 92 265 340 360 528 625 630 598 544 409 550 510 323 67 0 0 11 0 0 0 0 0 44 63 59 0 1 0 6 4 1 0 0 0 0
0 0 0 0 0 0 0 0 0 104 218 235 247 258 85 206 300 271 440 454 358 143 0 0 0 0 0 0 0 0 0 0 0 0 2 0 3 0 2 1 2 1 0
CIN
-90 -90 -129 -145 -126 -118 -108 -136 -148 -148 -129 -139 -194 -201 -184 -204 -211 -185 -242 -161 -179 -42 -28 -28 -26 -23 -25 -26 -21 -12 -14 -17 -16 -10 -10 -13 -9 -4 -5 -10 -14 -23 -27
-109 -133 -148 -154 -105 -152 -136 -134 -132 -135 -129 -120 -95 -144 -127 -123 -142 -166 -201 -264 -236 -76 -67 -26 -40 -38 -26 -18 -19 -20 -20 -29 -38 -26 -20 -3 -1 0 -6 -10 -14 -17 -28
-114 -115 -119 -133 -152 -200 -125 -103 -124 -132 -141 -142 -139 -133 -132 -123 -111 -105 -179 -235 -229 -135 -90 -58 -39 -48 -23 -22 -16 -14 -24 -21 -19 -20 -4 -4 -5 -6 -19 -32 -58 -82 -86
-148 -140 -135 -132 -180 -188 -123 -102 -107 -98 -108 -117 -125 -152 -167 -179 -151 -158 -182 -202 -210 -184 -126 -85 -54 -42 -48 -44 -45 -15 -7 -17 -19 -14 -4 -4 -5 -34 -45 -56 -91 -183 -172
-179 -171 -111 -170 -135 -134 -109 -135 -144 -93 -105 -111 -142 -234 -203 -135 -272 -244 -192 -182 -207 -180 -156 -120 -68 -30 -48 -49 -64 -45 -22 -17 -10 -14 -19 -24 -42 -59 -106 -162 -3 -2 -2
-202 -211 0 -92 -164 -116 -109 -144 -161 -103 -108 -162 -159 -306 -296 -268 0 -231 -212 -225 -197 -170 -164 -143 -106 -64 -44 -50 -62 -68 -69 -65 -60 -64 -68 -110 -120 -159 -7 0 0 -2 -2
-1 -2 0 -183 -136 -134 -103 -128 -112 -77 -101 -197 -112 -132 0 0 0 -321 -259 -198 -170 -155 -155 -161 -120 -107 -54 -38 -55 -60 -83 -108 -99 -74 -88 -117 -156 0 0 0 0 0 -8
0 0 -255 -169 0 -109 -88 -91 -87 -66 -115 -171 -65 -87 -56 0 0 0 -242 -225 -182 -165 -133 -131 -135 -144 -109 -93 -60 -67 -60 -77 -93 -111 -92 -68 -106 0 0 0 0 0 0
-208 -134 0 0 -91 -82 -74 -83 -83 -69 -77 -163 -130 -70 -32 -22 0 0 0 0 -9 -140 -187 -155 -140 -143 -131 -125 -89 -59 -71 -70 -64 -66 -56 -80 0 0 0 0 0 0 0
-157 -162 0 -132 -64 -79 -75 -85 -65 -87 -128 -107 -12 -33 -188 -25 0 -48 -101 -143 -42 0 0 0 -50 -163 -134 -139 -126 -80 -72 -82 -41 -62 -74 -115 0 0 0 0 0 0 0
-111 -124 -97 -212 -71 -61 -64 -60 -50 -88 -97 -102 0 0 0 0 -18 -96 -52 -67 -157 0 0 0 0 0 -191 -140 -142 -109 -100 -89 -56 -55 -72 0 0 0 0 0 0 0 0
-85 -100 -103 -101 -61 -47 -56 -48 -52 -56 -52 -71 -102 0 -199 -80 -75 -87 -80 -91 -95 -119 -72 -267 -74 0 -156 -146 -123 -121 -120 -114 -87 -63 -14 0 0 0 0 0 0 0 0
-68 -71 -81 -67 -53 -49 -46 -59 -60 -53 -61 -47 -63 -95 -113 -109 -116 -107 -124 -95 -99 -108 -96 -105 -223 0 -221 -148 -121 -116 -135 -149 -146 -75 0 0 0 0 0 0 0 0 0
-54 -67 -67 -56 -37 -30 -26 -32 -46 -54 -50 -44 -39 -46 -61 -70 -74 -84 -92 -82 -75 -101 -95 -64 -153 -12 -209 -146 -124 -116 -140 -1 0 0 0 0 0 0 0 0 0 0 0
-51 -57 -50 -41 -43 -36 -30 -30 -34 -34 -38 -54 -62 -41 -55 -49 -51 -71 -91 -118 -108 -46 -50 -64 -65 -165 0 -176 -149 -121 -171 -144 0 0 0 0 0 0 0 0 0 0 0
-66 -68 -49 -43 -46 -47 -41 -38 -42 -32 -23 -30 -34 -28 -33 -35 -33 -53 -63 -101 -110 -62 -44 -72 -52 -83 -52 -132 -140 -143 -165 -75 0 0 0 0 0 0 0 0 0 0 0
-52 -50 -48 -48 -45 -53 -46 -41 -40 -32 -25 -28 -35 -33 -26 -42 -35 -40 -48 -58 -52 -69 -37 -76 -79 -72 -77 -77 -91 -125 -159 -172 0 0 0 0 0 0 0 0 0 0 0
-51 -46 -52 -41 -44 -48 -54 -45 -43 -36 -29 -26 -28 -36 -38 -49 -43 -53 -50 -42 -36 -46 -38 -36 -83 -50 -41 -51 -61 -78 -113 -186 -230 0 0 0 0 0 0 0 0 0 0
-44 -47 -54 -49 -41 -44 -59 -52 -48 -41 -34 -32 -32 -33 -46 -60 -84 -49 -37 -39 -34 -43 -54 -44 -44 -67 -53 -65 -61 -108 -129 -146 -214 0 0 0 0 0 0 0 0 0 0
-55 -48 -59 -51 -53 -63 -51 -51 -44 -51 -55 -51 -46 -40 -41 -41 -36 -30 -40 -33 -40 -34 -47 -47 -45 -47 -54 -51 -57 -49 -70 -149 -117 0 0 0 0 0 0 0 0 0 0
-63 -73 -46 -64 -60 -67 -66 -93 -84 -54 -59 -56 -48 -55 -45 -43 -35 -30 -29 -26 -28 -30 -34 -42 -39 -44 -39 -33 -27 -52 -62 -103 0 0 0 0 0 0 0 0 0 0 0
-164 -87 -67 -49 -47 -61 -58 -79 -75 -55 -59 -44 -49 -43 -48 -34 -40 -33 -33 -37 -31 -23 -34 -44 -33 -29 -33 -39 -41 -27 -22 -42 -70 0 0 0 0 0 0 0 0 0 0
-121 -128 -148 -114 -56 -58 -71 -69 -64 -47 -24 -28 -35 -35 -38 -37 -38 -30 -32 -45 -55 -67 -75 -65 -45 -57 -43 -64 -68 -53 -47 -37 -43 0 0 0 0 0 0 0 0 0 0
-125 -90 -111 -125 -167 -192 -101 -72 -61 -32 -22 -24 -30 -31 -33 -33 -37 -24 -28 -26 -37 -67 -109 -92 -79 -94 -109 -162 -70 -105 -91 -29 0 0 0 0 0 0 0 0 0 0 0
-78 -100 -128 -118 0 -174 0 -89 -119 -52 -36 -33 -38 -35 -37 -40 -42 -50 -32 -33 -45 -140 0 0 -28 0 0 0 0 0 -62 -37 -27 0 0 0 0 0 0 0 0 0 0
0 0 -23 -7 0 0 0 0 0 -133 -98 -69 -77 -83 -158 -113 -84 -101 -48 -33 -32 -90 0 0 0 0 0 0 0 0 0 0 0 0 0 0 0 0 0 0 0 0 0
Wind_Speed
12 19 21 18 16 16 17 18 18 16 16 15 14 11 8 8 12 14 13 12 13 14 15 14 15 14 14 14 14 14 14 14 13 13 14 13 14 15 16 17 16 15 13
19 24 19 17 11 14 16 17 20 18 17 16 15 12 11 10 13 14 15 15 14 13 15 15 16 16 15 14 14 14 13 13 13 14 15 17 17 17 17 15 14 13 12
20 19 20 18 12 13 15 13 14 18 17 16 16 14 11 12 13 13 16 16 16 15 15 16 16 17 16 15 13 13 13 13 14 16 19 19 18 17 15 14 13 12 11
18 19 19 17 14 13 13 14 14 15 16 17 17 16 17 17 16 11 16 15 16 16 16 16 15 16 17 16 15 15 15 15 16 17 18 17 15 13 13 12 12 11 10
19 16 18 17 15 14 13 15 16 16 15 13 15 15 17 17 17 11 12 16 17 17 16 16 16 15 17 17 17 17 17 17 17 17 17 16 15 15 12 10 10 9 9
21 18 19 17 17 15 13 15 14 15 15 11 12 15 16 16 13 19 13 15 16 17 16 16 16 15 15 17 17 17 18 18 17 17 17 17 15 13 11 9 10 9 9
21 20 20 17 16 18 15 16 17 17 16 14 13 14 13 15 19 19 18 15 16 15 15 15 15 15 14 15 15 16 17 18 17 16 16 16 14 11 10 11 10 11 10
16 14 21 22 19 20 18 17 16 19 18 17 19 16 11 19 14 19 19 15 13 13 12 12 13 13 14 14 14 15 15 16 17 17 15 15 12 12 10 17 18 18 19
5 16 28 20 21 21 19 19 21 20 20 19 18 13 15 14 21 18 9 16 17 14 12 10 11 11 12 12 13 13 14 14 14 15 17 17 17 17 17 18 19 19 19
18 12 15 21 20 21 20 19 21 18 15 14 17 17 13 10 20 19 17 17 12 8 10 11 9 11 12 11 12 12 12 12 13 15 16 16 17 17 17 18 19 18 17
27 23 26 27 28 23 21 21 22 10 15 17 14 8 10 21 9 21 20 20 17 9 10 11 9 10 12 11 11 11 11 11 11 12 13 14 15 16 16 17 18 17 18
29 31 30 31 31 23 19 18 16 14 13 13 9 6 8 18 10 15 19 20 20 12 9 9 11 8 11 12 11 10 10 10 9 10 11 12 13 14 14 15 16 17 19
23 32 32 32 31 32 23 18 18 17 14 8 3 3 5 5 17 16 9 20 22 14 19 13 11 11 9 12 10 9 8 8 8 8 9 10 11 12 13 14 15 17 18
26 20 5 25 31 31 28 23 24 23 20 20 18 14 26 25 15 18 25 10 23 21 19 19 18 9 8 8 10 9 7 7 7 7 7 9 10 11 12 13 15 16 17
27 33 25 23 29 28 28 25 28 29 24 24 24 22 28 28 21 21 23 25 17 21 18 19 18 15 7 7 11 8 5 5 6 5 6 8 9 9 10 12 14 14 16
27 23 28 25 29 30 27 25 26 30 29 27 23 22 24 25 23 25 20 21 16 18 17 13 16 16 8 7 7 6 4 5 5 4 5 6 7 8 9 11 12 13 15
32 28 25 27 24 27 21 23 26 27 30 31 26 22 19 20 22 22 24 25 19 10 16 20 16 16 10 5 4 3 3 3 3 2 5 6 6 8 10 11 12 14 15
32 32 29 30 33 31 16 14 22 24 21 30 27 23 26 24 29 27 24 9 20 13 17 22 18 17 10 12 10 7 4 6 5 4 5 8 8 9 10 12 13 14 16
30 32 32 34 34 32 19 17 16 19 21 22 24 23 22 21 21 20 19 21 22 16 15 19 23 18 18 16 16 16 13 12 12 11 8 9 9 10 10 14 15 15 14
26 30 29 28 30 31 22 20 18 20 23 21 23 23 23 22 21 19 18 17 17 18 17 18 19 20 19 19 17 18 17 16 15 16 13 10 11 11 11 14 15 15 16
31 31 34 33 29 29 28 20 22 22 24 25 23 23 23 23 21 21 21 23 22 22 16 17 18 19 21 21 20 20 19 18 18 15 13 13 13 14 14 15 15 15 16
22 29 33 35 33 32 31 28 25 24 24 29 22 30 25 24 20 20 20 19 19 18 18 17 19 19 20 20 20 19 18 18 21 14 14 15 15 17 17 17 16 16 15
12 26 27 30 32 35 37 36 29 27 27 27 27 26 27 27 23 23 22 20 19 18 17 20 20 20 22 22 22 22 19 18 20 19 17 21 18 19 18 17 16 16 15
13 19 22 27 31 34 34 32 31 31 30 27 26 26 25 27 26 23 22 21 21 21 22 20 20 23 22 21 20 21 21 21 21 20 18 23 20 22 21 19 16 15 15
13 13 17 21 27 38 36 36 32 29 30 28 27 26 26 27 26 21 23 22 20 21 24 21 19 19 19 20 21 20 21 22 25 23 21 23 22 23 23 20 16 15 16
14 22 28 22 31 27 23 28 30 29 30 31 29 28 30 32 28 23 20 20 23 23 19 18 18 19 20 21 22 22 21 23 24 25 21 23 22 21 25 20 16 14 14
Wind_Direction
241 219 214 224 229 231 225 209 196 199 199 183 183 197 212 202 169 154 158 168 173 167 157 160 160 164 169 169 170 172 175 179 182 180 168 163 157 142 130 123 127 130 137
225 210 223 235 270 262 240 234 184 191 189 184 183 199 217 198 169 140 148 147 162 169 152 152 146 142 149 160 169 178 183 182 179 165 147 128 125 125 125 132 133 138 142
227 229 228 239 278 279 253 269 247 173 152 166 150 164 214 185 158 161 136 130 142 150 152 146 148 137 133 141 158 172 181 179 163 146 123 111 115 130 146 147 140 144 148
239 237 239 249 271 285 284 261 272 265 237 174 142 81 78 108 116 179 133 126 125 131 123 139 136 135 123 125 131 143 153 154 151 145 132 141 160 172 165 158 151 159 156
247 252 249 257 268 281 291 273 257 274 263 60 65 35 63 95 107 184 151 104 109 120 113 123 133 129 119 111 120 124 128 132 138 143 140 144 150 152 179 191 189 189 200
247 259 257 262 267 278 296 282 279 277 267 313 9 49 86 116 124 33 111 117 103 109 108 108 112 123 128 109 107 115 120 120 125 129 130 122 136 155 188 214 246 236 205
252 257 255 260 273 267 285 276 270 273 280 306 349 100 91 28 329 315 307 95 93 94 115 106 102 103 117 122 114 109 109 107 111 125 135 129 144 189 230 249 232 257 251
275 276 259 250 263 263 278 277 286 271 275 280 241 342 217 262 17 289 285 179 82 86 105 122 114 106 107 116 123 115 105 100 91 102 133 120 138 242 193 83 71 67 53
327 293 237 252 257 259 271 278 265 278 277 280 295 357 212 208 290 313 134 197 267 23 88 99 145 130 114 120 127 131 110 102 100 85 67 72 58 51 55 48 33 45 53
269 299 254 247 259 262 269 279 280 295 308 322 305 314 354 18 289 270 236 214 176 136 102 55 54 152 140 126 128 133 121 101 93 70 58 53 49 47 44 27 37 55 75
236 252 234 240 240 266 277 282 273 332 308 310 326 25 37 254 72 257 247 246 243 101 117 52 27 132 144 134 133 122 118 101 89 88 69 55 53 48 45 37 40 53 44
238 226 233 221 227 271 285 291 296 310 320 319 346 63 123 200 7 342 235 247 251 229 81 116 40 88 149 162 141 121 96 109 91 74 77 61 49 45 44 42 38 29 23
264 231 228 233 243 238 279 290 292 297 311 332 15 101 11 51 316 323 262 247 281 248 331 23 72 123 107 151 144 122 90 85 93 79 66 55 50 45 43 34 27 22 19
259 272 257 260 249 251 262 277 277 282 295 296 301 308 269 276 313 306 264 211 269 313 315 327 349 99 122 122 154 142 108 92 90 86 63 35 32 31 30 23 18 16 13
258 251 266 271 258 260 261 273 264 258 279 283 283 289 265 262 293 296 287 277 316 313 327 330 340 358 93 108 141 133 115 74 72 67 47 30 25 28 27 18 14 12 9
264 268 265 267 260 258 268 274 275 260 265 273 288 292 284 281 289 284 299 300 317 317 331 0 345 350 39 62 107 123 120 21 28 44 42 34 32 25 19 13 10 8 5
258 264 269 267 271 271 278 278 279 278 266 262 276 291 300 298 294 295 291 289 306 332 321 320 338 342 4 42 67 65 58 61 38 28 9 15 13 5 2 5 4 1 0
260 261 265 264 263 270 278 271 280 280 286 270 278 291 284 291 283 287 291 293 299 318 316 311 328 334 346 345 347 352 7 9 9 11 356 351 350 347 349 353 354 354 354
264 263 263 262 265 268 273 269 275 282 285 285 286 291 295 300 297 299 301 297 298 313 319 315 314 330 330 332 331 332 337 339 342 345 343 339 338 336 336 342 342 345 354
266 265 265 267 268 268 270 269 272 277 280 287 287 291 294 296 297 300 302 305 307 309 314 317 317 321 324 326 329 327 328 329 331 334 337 338 339 338 337 338 339 340 341
270 268 265 266 267 268 269 266 271 275 281 284 287 290 291 292 291 295 298 300 301 303 308 312 315 318 320 321 322 323 323 325 326 329 333 335 336 336 333 335 337 338 339
280 273 267 263 266 266 269 271 271 274 278 280 288 281 288 289 291 293 297 301 305 305 305 309 311 313 317 321 325 324 324 323 321 331 328 326 330 329 331 332 335 335 337
253 269 271 271 268 266 266 267 271 273 276 279 281 282 283 283 287 290 295 296 301 304 305 306 307 310 311 319 321 322 323 321 321 325 326 323 326 324 326 328 329 330 329
251 267 268 274 274 269 268 269 269 271 274 276 278 278 280 282 283 287 290 292 297 300 303 305 307 309 314 317 320 322 322 323 324 325 324 319 324 322 324 325 327 329 331
276 266 273 274 279 270 271 268 269 269 270 273 276 276 278 281 283 281 283 287 295 300 304 307 310 314 318 319 319 320 318 317 316 318 319 319 322 322 324 324 325 326 325
289 283 284 283 280 277 268 270 268 269 269 272 275 278 279 277 280 282 281 287 292 296 301 307 310 313 316 318 321 320 318 315 317 317 321 318 322 325 322 328 327 330 334